Location: *
(2.5500°S, 65.9667°W)
Time: 12:40:21
(UTC+00:00)

Ariane H10 - Pass Details

Date: 26 October 2021
Orbit: 494 x 35386 km, 6.6° (Epoch: 29 November)

Event Time Altitude Azimuth Distance (km) Brightness Sun altitude
Rises 23:35:23 0° 282° (WNW) 5,901 8.6 -20.7°
Reaches altitude 10° 23:41:12 10° 292° (WNW) 3,132 6.8 -22.1°
Enters shadow 23:46:11 29° 353° (N) 1,133 3.8 -23.3°
